Regional Weather Roundup
Issued by NWS

Home | Current Version | Previous Version | Text Only | Print | Product List | Glossary On
Versions: 1 2 3 4 5 6 7 8 9 10 11 12 13 14 15 16 17 18 19 20 21 22 23 24 25 26 27 28 29 30 31 32 33 34 35 36 37 38 39 40 41 42 43 44 45 46 47 48 49 50
000
ASUS44 KOUN 281210
RWROK

WEATHER ROUNDUP FOR OKLAHOMA
NATIONAL WEATHER SERVICE NORMAN OK
700 AM CDT SAT MAR 28 2015

NOTE: "FAIR" INDICATES FEW OR NO CLOUDS BELOW 12,000 FEET WITH NO
      SIGNIFICANT WEATHER AND/OR OBSTRUCTIONS TO VISIBILITY.

OKZ001>007-009>012-014-015-017-281300-
NORTHWEST OKLAHOMA AND THE PANHANDLE

CITY           SKY/WX    TMP DP  RH WIND       PRES   REMARKS
GAGE           CLEAR     44  38  79 SW7       29.99S
6HR MIN TEMP:  44; 6HR MAX TEMP:  50;

GUYMON         CLEAR     47  33  58 SW7       30.01F
ENID/WOODRING  PTCLDY    41  37  87 SE6       30.01R
$$

OKZ016-021>023-033>039-044-045-281300-
SOUTHWEST OKLAHOMA

CITY           SKY/WX    TMP DP  RH WIND       PRES   REMARKS
LAWTON/REGL    CLEAR     37  35  92 CALM      30.04S
6HR MIN TEMP:  37; 6HR MAX TEMP:  46;

LAWTON/FT SILL CLEAR     43  39  86 SW3       30.02S
FREDERICK      CLEAR     41  38  89 E7        30.01S
CLINTON        CLEAR     45  39  79 SW16      30.01F
HOBART         CLEAR     39  37  92 SW10      30.02F WCI  32
ALTUS AFB      CLEAR     37  37 100 CALM      30.03R
$$

OKZ018>020-024>031-281300-
CENTRAL OKLAHOMA

CITY           SKY/WX    TMP DP  RH WIND       PRES   REMARKS
OKLAHOMA CITY  PTCLDY    45  37  73 S8        30.02S
6HR MIN TEMP:  42; 6HR MAX TEMP:  48;

OKC/WILEY POST MOCLDY    48  39  71 SW16      30.01R
OKC/TINKER AFB MOCLDY    46  38  73 S6        30.02R
STILLWATER     PTCLDY    44  36  73 S7        30.03S
GUTHRIE        MOCLDY    49  39  68 SW6       30.02R
$$

OKZ008-013-054>072-281300-
NORTHEAST OKLAHOMA

CITY           SKY/WX    TMP DP  RH WIND       PRES   REMARKS
TULSA          CLOUDY    44  37  76 SE7       30.07S
6HR MIN TEMP:  44; 6HR MAX TEMP:  48; 6HR PCP:  0.01;

TULSA/JONES    CLOUDY    47  35  63 S6        30.08S
PONCA CITY     MOCLDY    43  32  65 SE7       30.05R
BARTLESVILLE   MOCLDY    43  31  62 S7        30.07F
MUSKOGEE       LGT RAIN  45  37  73 SE8       30.10R
$$

OKZ032-040>043-046>053-073>077-281300-
SOUTH CENTRAL/SOUTHEAST OKLAHOMA

CITY           SKY/WX    TMP DP  RH WIND       PRES   REMARKS
ARDMORE/DWNTWN PTCLDY    45  37  76 CALM      30.06S
MCALESTER      CLOUDY    46  31  55 S5        30.09R
$$



USA.gov is the U.S. government's official web portal to all federal, state and local government web resources and services.